Temp
51 44 40 45 46 48 46 43 41 45 52 47 47 46 48 45 46 44 44 44 44 45 47 47 46 44 43 44 44 44 44 44 44 43 41 42 42 43 45 47 48 49 49 50
45 41 51 51 50 48 45 43 42 47 51 49 43 47 47 44 44 45 44 42 43 43 44 47 44 42 41 42 42 42 42 42 43 43 42 42 42 43 45 46 48 49 49 51
43 49 54 50 47 46 44 42 43 45 44 44 42 41 46 43 45 46 45 44 44 42 41 43 44 40 39 40 39 41 41 41 43 43 43 42 43 44 44 45 46 48 49 50
45 53 51 49 46 47 40 49 49 46 40 35 42 31 41 40 41 43 43 41 41 41 42 42 41 39 38 38 38 39 40 40 43 43 41 40 40 40 42 44 46 47 49 50
44 47 45 45 48 50 45 50 47 44 37 33 36 32 36 40 36 38 40 41 40 40 40 39 38 38 38 38 37 36 38 40 41 41 41 42 41 42 43 45 45 46 48 50
49 53 51 50 51 52 51 46 43 39 36 29 37 38 34 33 38 40 41 42 41 40 40 40 39 38 36 36 35 35 36 38 41 41 42 41 41 41 41 42 43 44 46 48
47 49 52 54 45 48 46 42 31 30 27 29 40 37 44 38 43 44 41 40 40 40 38 37 36 35 36 35 34 36 36 37 39 41 41 40 40 42 42 42 43 42 42 45
38 34 48 52 51 43 41 41 30 25 26 29 39 30 36 41 42 44 43 41 41 39 38 36 36 35 34 35 34 34 35 36 38 40 40 40 41 42 42 43 43 42 42 44
36 38 52 53 52 53 41 37 45 33 32 28 33 33 38 40 40 41 40 40 38 38 37 36 36 35 34 33 34 33 34 36 38 38 39 39 41 41 41 42 42 42 42 44
44 35 47 49 53 50 46 47 34 32 27 26 31 31 31 34 36 39 37 37 38 39 38 36 36 35 34 34 33 33 33 34 36 37 38 40 41 42 41 41 41 41 41 42
50 41 39 44 40 40 39 36 39 39 34 28 24 30 41 39 40 37 37 38 37 37 37 36 35 34 34 34 33 32 33 34 36 36 37 39 40 40 39 39 40 40 41 41
47 38 36 39 47 49 45 41 40 27 30 33 31 33 40 42 40 39 39 40 39 38 37 36 35 33 33 32 32 32 33 34 36 36 38 39 40 39 37 38 39 40 39 41
45 36 28 34 41 44 40 41 43 40 36 32 28 32 41 41 40 40 38 39 39 39 38 36 33 28 29 31 31 32 33 34 35 35 37 38 39 36 36 36 38 38 39 39
45 35 34 30 33 37 35 41 44 35 27 33 35 36 35 38 38 39 38 38 38 38 37 35 30 24 25 28 30 31 33 34 34 34 36 35 38 36 35 36 37 37 38 38
40 31 33 38 43 42 39 40 40 32 38 30 34 37 43 39 39 39 39 39 39 38 36 34 30 23 22 25 28 31 32 33 34 33 34 34 37 36 35 34 35 36 36 36
40 30 33 34 40 41 38 39 37 37 40 39 40 38 41 44 41 38 39 40 38 36 35 34 32 29 27 28 30 31 31 31 32 31 33 34 36 36 34 33 34 34 34 34
34 32 31 28 38 34 27 33 36 36 41 40 34 39 39 38 38 37 37 38 37 36 35 34 31 30 30 29 30 29 30 31 31 31 33 34 35 34 32 32 32 32 31 33
33 31 32 28 29 22 35 43 43 39 40 43 41 39 41 40 38 37 38 37 37 36 34 32 30 29 29 29 29 30 31 30 30 32 32 33 33 33 31 30 29 30 31 31
40 34 27 25 26 30 35 40 39 37 36 43 39 38 38 36 36 32 38 38 35 34 32 30 30 29 28 28 29 29 28 29 31 31 31 32 32 32 31 28 28 29 30 31
40 38 32 27 22 17 30 40 47 47 31 40 39 36 34 36 27 29 34 35 34 33 32 31 30 29 27 28 29 27 26 29 28 30 31 32 32 32 30 28 28 30 30 31
29 30 27 26 24 27 37 42 45 30 29 39 40 37 35 29 30 32 34 32 33 31 31 31 30 26 26 27 28 25 25 27 30 31 31 31 32 32 32 28 29 29 29 31
27 25 26 27 25 22 41 40 35 36 38 38 38 37 33 32 32 32 32 30 29 28 28 28 25 25 26 27 27 23 24 29 31 30 30 30 31 32 32 28 30 30 28 29
26 29 28 30 27 38 39 38 40 42 38 37 36 37 34 32 30 30 28 28 27 26 25 26 24 24 25 25 26 23 26 29 30 30 29 29 32 30 31 29 28 27 27 27
33 37 28 31 34 35 39 41 41 41 38 38 38 36 34 29 28 27 27 25 24 24 23 24 23 22 23 24 26 25 28 30 28 28 28 29 29 30 29 29 27 26 25 25
30 35 32 32 35 36 38 39 39 39 39 38 37 36 31 29 27 26 24 23 23 23 22 22 22 22 22 23 24 25 28 28 27 28 28 28 28 28 28 28 25 25 25 26
33 30 31 27 35 35 35 38 38 35 35 35 33 31 31 29 25 24 22 23 22 22 22 22 21 21 21 22 23 24 26 27 26 26 26 26 27 27 27 26 24 29 28 29
MSLP
1015.17 1015.89 1015.61 1015.53 1015.46 1015.40 1015.55 1015.59 1015.38 1014.56 1013.68 1013.69 1013.61 1013.81 1014.33 1015.51 1016.64 1017.95 1018.79 1019.35 1019.90 1020.15 1020.33 1020.52 1020.59 1020.48 1020.11 1019.76 1019.58 1019.89 1019.81 1019.38 1019.12 1018.55 1017.66 1016.92 1016.51 1015.83 1015.58 1015.13 1014.58 1014.22 1013.71 1013.29
1015.65 1015.75 1015.33 1015.43 1015.59 1015.62 1015.52 1015.79 1015.16 1014.59 1013.77 1013.99 1013.89 1014.36 1015.33 1016.28 1017.21 1018.02 1018.89 1019.72 1020.06 1020.32 1020.46 1020.51 1020.73 1020.68 1020.52 1020.59 1020.25 1019.97 1019.51 1019.32 1019.33 1018.76 1018.36 1017.92 1016.93 1015.83 1015.37 1014.74 1014.35 1013.98 1013.46 1012.80
1014.74 1014.40 1014.52 1015.38 1015.48 1015.59 1015.31 1015.36 1015.03 1014.69 1014.27 1014.30 1014.70 1015.32 1015.61 1017.11 1017.70 1018.70 1019.43 1019.89 1020.34 1020.68 1020.88 1021.06 1021.21 1021.25 1020.97 1020.52 1020.35 1020.12 1019.75 1019.42 1019.33 1018.84 1018.33 1017.38 1016.46 1015.60 1014.82 1014.36 1013.93 1013.65 1013.18 1012.46
1014.32 1013.67 1013.90 1014.68 1015.28 1015.45 1015.13 1014.59 1014.57 1014.79 1015.19 1015.51 1015.53 1015.77 1015.96 1017.02 1018.15 1018.97 1019.62 1020.15 1020.55 1020.87 1020.97 1021.11 1021.35 1021.47 1021.41 1021.11 1020.88 1020.51 1019.72 1019.61 1019.32 1018.92 1018.49 1017.43 1016.40 1015.48 1014.91 1014.24 1013.51 1013.05 1012.48 1011.73
1013.26 1013.24 1013.31 1013.53 1013.65 1014.56 1014.58 1014.44 1014.78 1015.14 1015.95 1016.26 1016.40 1017.06 1015.57 1016.90 1018.32 1019.12 1019.72 1020.27 1020.69 1021.00 1021.04 1021.32 1021.77 1021.79 1021.71 1021.10 1020.78 1020.32 1020.30 1019.82 1019.33 1018.97 1018.28 1017.25 1016.17 1015.60 1014.74 1014.06 1013.09 1012.56 1011.59 1010.93
1012.85 1012.57 1012.61 1012.48 1012.68 1013.26 1014.20 1014.98 1015.61 1016.30 1016.69 1016.60 1016.45 1016.95 1014.68 1016.21 1016.17 1017.87 1019.12 1019.86 1020.57 1020.95 1021.20 1021.35 1021.57 1021.61 1021.58 1021.30 1020.96 1020.89 1020.89 1020.08 1019.29 1018.48 1017.59 1016.57 1015.88 1015.56 1014.68 1013.85 1012.88 1011.94 1011.03 1010.19
1012.91 1012.35 1012.16 1012.22 1012.73 1013.16 1013.85 1015.27 1016.56 1017.16 1017.32 1016.20 1015.76 1016.65 1014.27 1015.31 1015.77 1016.80 1018.60 1019.92 1020.38 1020.82 1021.36 1021.82 1021.98 1022.07 1021.89 1021.61 1021.29 1021.49 1020.81 1019.98 1018.82 1017.85 1016.97 1016.68 1016.41 1015.75 1014.76 1013.82 1012.72 1011.63 1010.51 1009.50
1012.67 1012.10 1011.81 1011.26 1011.45 1012.35 1013.47 1014.29 1015.68 1016.50 1016.96 1016.47 1016.24 1015.93 1015.16 1015.86 1016.33 1017.15 1018.38 1019.66 1020.47 1020.91 1021.47 1022.02 1022.11 1022.10 1022.19 1021.89 1021.93 1021.29 1020.46 1019.38 1018.34 1017.66 1017.09 1016.88 1016.57 1015.65 1014.62 1013.67 1012.73 1011.75 1010.67 1009.51
1012.26 1011.64 1010.59 1010.44 1010.84 1011.45 1013.01 1013.58 1014.16 1015.66 1016.51 1016.80 1016.00 1015.78 1016.05 1016.67 1017.43 1018.02 1018.89 1019.72 1020.67 1021.25 1021.52 1021.86 1022.13 1022.22 1022.32 1022.48 1021.84 1021.22 1020.00 1019.13 1018.24 1017.80 1017.46 1017.19 1016.18 1015.32 1014.55 1013.62 1012.61 1011.47 1010.40 1009.01
1011.41 1011.69 1010.95 1010.55 1010.76 1011.33 1011.45 1012.79 1014.47 1015.25 1016.15 1016.46 1015.50 1015.72 1015.58 1016.63 1017.35 1018.20 1019.10 1019.72 1020.35 1020.73 1021.46 1022.07 1022.11 1022.55 1022.57 1022.28 1021.81 1020.79 1019.74 1018.96 1018.47 1018.21 1017.81 1017.05 1015.85 1015.28 1014.48 1013.62 1012.36 1011.28 1010.08 1008.99
1011.25 1012.02 1011.63 1011.36 1011.07 1011.18 1012.06 1012.41 1013.41 1014.09 1014.82 1015.34 1015.59 1014.91 1014.68 1015.63 1016.61 1017.65 1018.73 1019.60 1020.35 1020.97 1021.29 1021.80 1022.29 1022.60 1022.46 1022.26 1021.71 1020.63 1019.49 1018.84 1018.58 1018.26 1017.61 1016.59 1015.83 1015.31 1014.46 1013.55 1012.34 1011.27 1009.99 1008.97
1011.93 1012.49 1012.49 1011.71 1011.23 1011.02 1011.08 1011.74 1012.53 1013.77 1014.48 1014.84 1015.06 1014.49 1014.97 1015.65 1016.84 1017.75 1018.63 1019.38 1020.21 1020.80 1021.45 1021.94 1022.11 1022.16 1022.45 1022.21 1021.38 1020.41 1019.84 1019.16 1018.85 1018.27 1017.45 1016.64 1016.00 1015.19 1014.19 1013.29 1012.18 1011.05 1009.85 1008.69
1011.28 1012.47 1013.53 1012.77 1012.52 1011.78 1011.62 1012.22 1012.65 1013.41 1014.05 1014.22 1014.88 1014.60 1015.40 1016.39 1017.20 1017.91 1018.50 1019.25 1020.10 1020.64 1021.30 1021.61 1021.86 1022.41 1022.41 1021.99 1021.61 1020.99 1020.20 1019.32 1018.84 1018.21 1017.33 1016.57 1015.72 1014.90 1014.04 1013.18 1012.11 1010.99 1009.83 1008.42
1012.40 1012.17 1012.31 1011.56 1011.28 1011.26 1011.86 1012.04 1012.66 1013.73 1014.58 1014.30 1014.06 1014.50 1015.59 1016.60 1017.05 1017.81 1018.45 1019.08 1019.77 1020.40 1020.90 1021.38 1022.01 1022.57 1022.73 1022.49 1021.83 1021.19 1020.08 1019.31 1018.73 1018.11 1017.29 1016.61 1015.59 1014.97 1014.15 1013.19 1012.09 1011.05 1009.94 1008.57
1013.35 1013.76 1013.29 1011.80 1011.12 1011.31 1011.72 1012.40 1012.92 1013.85 1013.60 1014.50 1013.84 1014.48 1014.07 1015.29 1015.99 1017.10 1017.91 1019.05 1019.75 1020.36 1021.23 1021.88 1022.34 1022.88 1022.82 1022.38 1021.50 1020.81 1020.12 1019.60 1018.85 1018.46 1017.52 1016.59 1015.68 1015.13 1014.24 1013.31 1012.16 1011.08 1010.05 1008.68
1013.70 1014.43 1014.39 1013.28 1012.20 1011.94 1012.01 1012.28 1012.38 1012.88 1012.65 1013.20 1012.91 1012.45 1013.32 1014.15 1016.01 1017.07 1017.64 1018.56 1019.68 1020.72 1021.65 1021.94 1022.37 1022.55 1022.33 1022.01 1021.54 1020.97 1020.44 1019.94 1019.27 1018.76 1017.79 1016.65 1015.90 1015.03 1014.43 1013.45 1012.28 1011.05 1010.03 1008.76
1014.57 1014.30 1014.25 1013.49 1012.88 1013.18 1012.89 1011.23 1012.08 1011.96 1011.97 1011.99 1011.88 1011.73 1013.14 1015.00 1015.91 1017.02 1017.84 1018.47 1019.86 1021.05 1021.36 1022.15 1022.58 1022.76 1022.54 1022.20 1021.63 1021.31 1021.00 1020.39 1019.88 1019.13 1018.02 1017.01 1016.25 1015.32 1014.66 1013.56 1012.46 1011.22 1010.06 1008.84
1014.09 1014.32 1013.81 1013.75 1013.60 1012.62 1010.70 1010.42 1010.48 1010.88 1010.77 1011.26 1011.34 1011.73 1012.60 1014.01 1015.79 1016.94 1018.04 1019.12 1020.33 1021.08 1021.78 1022.32 1022.77 1022.85 1022.64 1022.25 1022.13 1022.01 1021.49 1020.84 1020.09 1019.30 1018.36 1017.58 1016.82 1015.68 1014.83 1013.71 1012.65 1011.57 1010.38 1009.19
1013.42 1013.97 1013.85 1013.80 1013.62 1012.24 1010.41 1009.71 1009.88 1010.29 1010.11 1010.68 1011.47 1012.59 1013.81 1015.61 1017.04 1018.32 1018.95 1019.92 1020.83 1021.86 1022.47 1022.77 1023.00 1023.15 1023.01 1022.61 1022.77 1022.58 1021.69 1020.99 1020.17 1019.50 1018.74 1017.96 1017.15 1016.03 1015.15 1014.10 1013.10 1012.09 1010.83 1009.53
1012.77 1012.77 1013.47 1013.98 1013.58 1012.37 1010.88 1009.86 1009.43 1009.68 1010.36 1010.82 1011.82 1013.02 1014.42 1015.82 1018.03 1019.13 1019.76 1020.70 1021.84 1022.73 1023.05 1023.34 1023.53 1023.55 1023.28 1023.11 1023.09 1022.59 1021.78 1021.16 1020.49 1019.76 1018.95 1018.26 1017.43 1016.48 1015.61 1014.79 1013.73 1012.68 1011.40 1010.22
1013.10 1013.43 1013.39 1013.66 1013.42 1012.10 1010.50 1009.88 1009.74 1010.80 1011.69 1011.60 1012.57 1014.01 1015.10 1016.86 1018.04 1019.33 1020.41 1021.54 1022.72 1023.47 1023.65 1023.72 1023.77 1023.76 1023.68 1023.29 1023.23 1022.56 1022.08 1021.53 1020.79 1020.00 1019.17 1018.40 1017.61 1016.76 1015.94 1015.25 1014.24 1013.11 1011.86 1010.61
1012.60 1013.03 1013.35 1013.52 1013.24 1012.02 1010.33 1010.37 1010.81 1011.39 1012.16 1012.77 1013.47 1014.98 1016.50 1018.27 1019.46 1020.38 1021.36 1022.46 1023.31 1023.86 1023.94 1023.94 1024.08 1024.04 1023.85 1023.91 1023.44 1022.80 1022.40 1021.75 1020.86 1020.09 1019.42 1018.59 1017.75 1017.03 1016.27 1015.60 1014.57 1013.61 1012.55 1011.27
1012.16 1011.52 1012.01 1012.34 1012.01 1011.15 1010.74 1010.76 1011.02 1011.53 1012.36 1014.13 1014.86 1016.43 1017.59 1019.17 1020.41 1021.59 1022.33 1023.14 1023.81 1024.22 1024.53 1024.79 1024.53 1024.29 1024.43 1024.34 1023.66 1023.16 1022.61 1021.80 1020.99 1020.21 1019.51 1018.72 1017.93 1017.33 1016.67 1015.95 1015.18 1014.34 1013.36 1012.17
1011.26 1011.15 1011.38 1011.73 1011.83 1011.67 1011.53 1012.02 1012.34 1013.05 1013.91 1015.09 1016.02 1017.27 1018.67 1020.18 1021.69 1022.42 1023.27 1023.95 1024.55 1024.95 1025.27 1025.28 1024.95 1025.26 1025.16 1024.46 1023.95 1023.68 1022.85 1022.03 1021.30 1020.43 1019.67 1019.01 1018.41 1017.76 1017.05 1016.49 1016.06 1015.34 1014.45 1013.37
1010.67 1010.72 1011.27 1012.25 1012.56 1012.66 1013.12 1013.19 1013.60 1014.22 1015.21 1016.54 1017.54 1018.47 1019.54 1020.92 1022.53 1023.20 1023.82 1024.64 1025.15 1025.71 1025.80 1025.86 1026.04 1025.84 1025.54 1025.14 1024.57 1023.98 1023.16 1022.31 1021.37 1020.76 1020.22 1019.64 1019.06 1018.40 1017.60 1017.11 1016.91 1016.33 1015.69 1014.86
1009.97 1009.96 1010.57 1010.85 1011.96 1012.20 1013.80 1014.35 1014.72 1015.50 1016.84 1017.82 1018.41 1019.57 1020.63 1021.62 1022.89 1023.68 1024.73 1025.48 1026.01 1026.38 1026.63 1026.66 1026.56 1026.37 1026.11 1025.60 1025.01 1024.27 1023.34 1022.53 1021.96 1021.42 1020.88 1020.30 1019.75 1019.03 1018.42 1017.82 1017.42 1017.14 1016.52 1015.78
Wind_Speed
3 1 8 10 7 3 1 3 4 6 6 4 8 5 4 6 11 11 8 8 7 6 3 4 4 4 6 8 9 7 9 10 8 8 10 8 10 11 8 9 11 11 9 11
2 8 12 6 4 5 5 6 8 7 5 4 3 9 5 3 5 9 10 7 6 4 3 3 5 6 7 7 7 8 9 10 8 6 7 5 9 5 10 8 10 12 13 13
11 11 6 2 6 7 6 6 5 6 2 2 3 7 6 3 8 7 5 5 5 5 3 4 5 5 6 12 11 11 9 10 9 10 8 8 8 7 7 9 10 11 15 15
8 11 14 14 9 6 9 7 7 5 4 5 2 7 7 6 7 6 6 6 6 5 4 6 7 8 8 7 6 8 10 8 9 10 9 12 10 12 10 11 11 14 16 15
10 5 7 13 14 7 8 6 6 3 4 3 3 2 5 8 6 7 7 5 4 4 6 6 5 4 5 6 8 9 10 9 8 9 10 9 12 11 11 12 17 16 14 14
7 3 6 9 2 8 6 5 6 5 2 6 8 7 6 8 10 11 6 6 6 5 6 5 5 6 6 7 7 7 8 8 9 9 11 14 16 16 15 15 13 12 12 12
4 15 4 4 2 4 5 7 1 3 1 8 6 8 14 1 10 15 12 7 6 6 5 5 6 7 7 9 8 7 8 10 10 12 14 15 15 16 16 16 12 18 15 12
11 8 15 8 19 8 8 9 7 7 5 4 3 9 6 3 7 11 9 7 6 5 5 4 4 5 7 8 8 8 9 11 12 14 15 13 14 11 12 14 14 13 13 14
7 8 4 6 5 17 8 9 6 5 1 1 5 3 2 3 6 8 7 6 5 4 4 5 5 5 6 7 8 8 9 10 12 13 13 13 14 15 16 19 16 13 17 15
5 5 2 1 5 3 9 10 4 1 6 7 5 6 5 10 11 8 7 6 5 5 5 3 4 5 4 7 7 8 7 9 10 11 11 12 14 16 16 16 17 19 18 20
14 3 2 3 4 10 4 4 2 4 5 5 2 7 4 15 13 12 8 7 6 5 5 2 2 3 5 7 8 8 8 10 12 12 13 14 14 17 16 15 15 17 19 19
6 2 14 6 4 3 1 6 7 5 5 4 4 9 5 9 10 8 7 6 5 6 5 3 1 4 5 6 8 9 8 9 11 11 13 15 15 15 16 16 17 17 18 18
8 5 7 3 4 5 2 3 2 4 3 6 5 5 4 5 6 6 7 7 6 6 5 3 5 4 5 7 8 8 8 9 11 12 13 14 16 15 17 17 17 17 18 19
3 4 12 16 4 5 5 5 5 6 2 6 10 4 6 9 9 8 6 7 6 5 5 4 5 4 5 6 7 8 9 10 11 13 14 15 17 16 16 17 17 17 16 18
5 5 6 3 6 6 6 5 6 7 14 9 21 16 13 18 17 13 7 6 6 5 4 1 2 3 5 5 6 7 8 11 12 13 13 14 16 16 17 17 17 16 16 16
4 5 3 7 3 6 7 8 9 11 14 13 19 26 3 11 8 10 10 9 7 5 4 2 4 2 5 6 8 9 10 11 12 13 14 14 15 18 17 17 17 17 16 16
4 4 6 8 6 1 5 22 13 10 10 16 19 8 8 6 11 11 9 8 7 7 5 3 4 3 4 6 8 9 10 11 11 12 13 14 15 15 17 17 17 17 18 17
6 4 4 2 3 8 7 6 16 21 24 19 6 6 16 11 9 11 6 6 7 7 6 4 3 4 6 6 7 7 8 9 11 14 12 14 15 14 16 17 17 17 16 16
11 7 3 4 6 7 8 3 6 9 10 12 7 10 13 16 11 6 4 6 8 7 5 4 4 4 5 6 7 8 8 9 11 12 13 15 14 14 15 16 17 16 15 16
8 5 6 4 4 7 5 5 4 6 9 4 9 15 19 15 7 4 9 12 10 8 5 4 4 3 5 6 6 8 9 11 12 14 13 12 13 14 13 14 15 15 15 14
3 2 10 4 4 8 7 7 1 6 6 4 11 13 15 5 2 13 14 12 10 7 7 6 5 5 6 8 7 9 9 12 13 13 12 12 12 12 12 12 12 14 15 14
8 7 4 3 4 9 1 1 6 6 7 10 13 12 15 13 14 14 13 11 9 8 8 9 5 6 7 7 8 9 10 12 13 12 11 11 12 11 10 11 13 14 15 14
5 7 8 9 7 3 3 1 7 7 14 8 15 13 16 14 13 12 11 10 9 8 6 5 5 6 6 7 7 9 11 12 12 11 11 11 13 10 11 10 12 11 13 12
3 4 4 5 2 3 10 12 13 11 16 14 15 15 14 15 12 12 9 8 7 6 6 6 7 6 7 9 10 9 11 11 11 11 11 11 12 13 10 8 8 9 10 11
6 7 6 5 8 11 8 12 16 18 17 14 13 13 15 15 10 10 9 8 7 7 6 6 5 6 8 8 8 9 11 11 11 10 10 10 9 10 9 8 9 9 9 14
4 7 7 7 11 8 11 13 17 17 15 13 16 14 12 13 12 13 9 7 6 6 5 6 7 7 7 8 8 10 11 11 11 9 9 9 8 8 8 8 6 17 18 23
Wind_Direction
327 40 224 219 207 163 35 243 255 266 274 206 226 225 201 103 119 132 138 142 144 133 146 105 84 47 39 30 22 13 354 353 348 340 343 343 334 328 318 315 307 300 296 298
39 258 254 211 224 231 237 266 270 276 260 202 218 252 100 186 143 150 150 145 153 128 98 78 50 33 36 16 12 4 5 354 331 336 330 311 315 306 308 308 313 309 301 299
190 215 35 195 257 253 228 211 242 210 309 4 110 303 251 50 103 113 120 127 113 121 114 49 41 31 15 13 3 359 349 343 323 334 323 319 318 318 319 319 315 310 302 297
231 228 233 259 252 208 255 214 222 164 110 215 98 264 273 161 142 147 147 141 141 119 75 54 31 22 8 353 332 337 350 324 330 326 320 333 325 323 323 313 310 308 302 293
228 205 191 225 233 176 239 184 172 137 133 110 268 295 236 133 174 187 181 166 143 120 94 82 50 22 342 351 352 345 326 316 315 319 323 324 333 319 317 316 315 308 302 294
218 229 159 198 157 194 131 82 46 47 93 258 188 186 215 191 187 172 167 162 155 106 78 71 45 10 351 347 352 339 304 310 315 324 330 342 336 325 321 320 315 309 308 301
216 243 248 170 128 59 125 121 277 295 241 240 219 204 258 299 176 168 161 161 141 102 84 52 32 3 351 347 342 311 322 317 328 336 344 343 331 318 321 315 315 315 313 310
204 271 204 196 208 168 190 163 169 209 212 265 130 230 274 74 85 105 119 137 123 103 108 68 33 359 341 335 308 313 322 330 338 341 339 335 326 325 320 318 315 310 304 304
184 257 237 208 172 165 194 205 170 114 276 61 232 282 280 122 100 118 133 130 133 107 106 71 13 355 339 302 306 301 323 333 341 334 333 325 332 330 325 319 313 313 310 308
225 275 240 219 112 36 171 153 98 327 192 234 253 258 244 185 175 160 158 158 143 105 105 68 4 330 294 306 298 306 321 335 333 329 326 325 332 331 324 318 317 316 311 313
219 198 234 110 224 166 148 175 127 140 159 188 254 254 336 192 180 165 164 161 158 143 137 129 264 336 329 305 301 312 335 342 338 333 332 332 332 329 325 318 318 316 314 312
200 155 247 212 259 228 169 179 152 147 197 222 157 265 344 150 147 146 160 149 149 142 149 139 25 31 339 312 322 337 332 342 337 332 329 333 329 327 328 323 322 321 318 315
195 205 228 240 317 340 151 169 184 105 59 206 173 248 88 112 130 162 156 151 149 145 119 74 20 4 328 335 326 328 326 337 336 334 327 329 333 332 330 326 324 323 322 320
349 176 204 224 203 139 163 164 140 103 157 269 253 275 183 196 181 180 173 155 143 127 88 41 1 345 312 313 312 323 338 342 337 332 333 331 335 334 331 327 327 326 325 320
77 347 317 267 168 153 159 206 176 181 242 229 263 263 253 197 193 181 156 159 134 116 107 42 356 281 287 302 325 337 347 339 337 331 328 332 331 333 332 331 329 328 327 326
198 210 320 301 210 203 207 228 208 226 206 239 244 248 199 188 138 156 158 148 139 129 143 74 90 329 344 341 347 344 345 337 335 330 330 335 333 338 334 333 332 331 330 330
216 193 177 234 211 203 273 236 237 245 233 219 230 217 134 161 170 158 145 134 141 135 108 86 92 28 4 352 351 347 338 331 331 328 333 340 333 335 335 335 336 337 335 332
170 233 170 161 74 241 233 185 212 223 235 229 238 156 179 175 129 115 107 129 127 121 102 90 81 29 4 357 350 326 329 330 333 342 339 340 332 335 338 339 340 338 337 337
207 189 183 180 200 311 297 239 172 184 264 226 191 123 117 112 88 49 104 103 106 104 104 108 89 46 6 1 335 326 331 339 347 342 338 342 334 336 343 341 340 337 337 336
181 203 191 137 216 224 243 280 313 143 262 186 149 151 146 137 153 166 114 106 97 93 85 87 91 45 19 346 328 336 341 347 345 338 331 334 338 336 345 338 337 335 337 336
115 124 206 175 218 280 244 272 187 182 239 115 144 148 142 108 131 122 110 97 98 96 86 77 62 39 5 354 334 344 344 348 338 330 328 332 337 339 344 335 342 341 340 340
171 155 178 166 200 257 236 92 177 167 59 105 113 117 102 108 108 107 104 105 95 81 62 53 43 24 1 345 347 344 347 339 336 328 328 332 341 349 343 343 347 351 345 347
203 178 172 183 210 268 329 127 106 118 118 112 107 111 116 115 110 109 103 92 78 68 64 43 40 18 356 346 352 345 346 342 336 329 334 338 350 351 353 360 354 353 351 355
212 166 129 121 202 114 115 96 95 98 104 113 110 116 114 115 116 105 102 94 82 69 63 34 34 16 356 350 351 348 347 337 337 343 342 347 352 357 360 8 358 358 357 360
199 144 125 75 102 85 76 107 114 102 97 101 101 111 115 112 110 114 98 86 78 72 47 40 27 17 359 344 346 346 341 342 348 351 349 351 351 349 356 11 7 6 3 10
189 174 169 189 169 121 132 122 114 116 125 122 116 102 100 110 108 99 89 85 81 72 55 43 31 22 360 352 346 347 346 351 350 356 355 355 350 352 358 357 3 12 15 16